Regional Weather Roundup
Issued by NWS Burlington, VT

Current Version | Previous Version | Text Only | Print | Product List | Glossary On
Versions: 1 2 3 4 5 6 7 8 9 10 11 12 13 14 15 16 17 18 19 20 21 22 23 24 25 26 27 28 29 30 31 32 33 34 35 36 37 38 39 40 41 42 43 44 45 46 47 48 49 50
000
ASUS41 KBTV 271130
RWRBTV
VERMONT REGIONAL WEATHER ROUNDUP
NATIONAL WEATHER SERVICE BURLINGTON VT
600 AM EST MON FEB 27 2017

NOTE: "FAIR" INDICATES FEW OR NO CLOUDS BELOW 12,000 FEET WITH NO
SIGNIFICANT WEATHER AND/OR OBSTRUCTIONS TO VISIBILITY.

* THESE REPORTS ARE NOT UNDER NWS QUALITY CONTROL AND/OR DO NOT
  REPORT WEATHER SUCH AS PRECIPITATION AND FOG.

VTZ001>019-271200-
_____VERMONT_____


CITY           SKY/WX    TMP DP  RH WIND       PRES   REMARKS
BURLINGTON     MOCLDY    31  18  58 S14G23    30.10R WCI  21
MONTPELIER     CLEAR     29  17  61 S13G18    30.11S WCI  19
MORRISVILLE    PTCLDY    29  17  61 S9        30.09R WCI  20
ST. JOHNSBURY*   N/A     18  15  88 MISG      30.09S
LYNDONVILLE*   FAIR      23  17  77 SE9       30.10R WCI  13
MIDDLEBURY*    FAIR      30   6  35 SE8       30.17R WCI  23
RUTLAND*       PTCLDY    32  18  56 VRB7      30.17R WCI  26
SPRINGFIELD    PTCLDY    21  16  81 N3        30.19S
HIGHGATE*      FAIR      31  21  65 S10G16    30.05S WCI  22
NEWPORT*       MOCLDY    27  18  68 S7        30.05S WCI  20
BENNINGTON     PTCLDY    25  16  68 S3        30.21R
SUTTON*          N/A     19 N/A N/A MISG        N/A
MT. MANSFIELD*   N/A     18 N/A N/A W3G15       N/A

_____LAKE CHAMPLAIN_____


CITY           SKY/WX    TMP DP  RH WIND       PRES   REMARKS
BURTON ISLAND*   N/A     32  25  74 SW18        N/A  WCI  20
COLCHESTER RF*   N/A     32  27  80 S32         N/A  WCI  17
DIAMOND ISL*     N/A     32  23  69 S17         N/A  WCI  21

$$

NYZ007-026>031-035-052-083-087-271200-
_____NORTHERN NEW YORK_____


CITY           SKY/WX    TMP DP  RH WIND       PRES   REMARKS
PLATTSBURGH    CLEAR     30  22  72 S13G24    30.08R WCI  20
SARANAC LAKE   CLEAR     26  19  74 SW9       30.02R WCI  17
MASSENA        CLOUDY    35  22  58 SW17G26   30.04R WCI  25
POTSDAM*       CLEAR     34  25  69 SW15G22   30.06R WCI  24
WATERTOWN      MOCLDY    35  22  58 S15G22    30.10R WCI  25
FT DRUM        PTCLDY    36  18  49 SW15G25   30.07R WCI  26
ALBANY         PTCLDY    29  17  61 S10       30.24R WCI  20
GLENS FALLS    CLEAR     28  17  63 S6        30.21R WCI  22

$$
NHZ002-005-011-271200-
_____NEW HAMPSHIRE_____


CITY           SKY/WX    TMP DP  RH WIND       PRES   REMARKS
LEBANON        CLOUDY    29  19  66 S9        30.17R WCI  20
KEENE          CLEAR     21  18  88 CALM      30.24R
MT WASHINGTON  FOG        9   9 100 W59G66      N/A  VSB 0   WCI -20
PLYMOUTH       CLOUDY    18  16  95 CALM      30.19R
WHITEFIELD     PTCLDY    19  14  81 CALM      30.09R

$$

_____REGIONAL QUEBEC LOCATIONS_____


CITY           SKY/WX    TMP DP  RH WIND       PRES   REMARKS
MONTREAL       MOCLDY    36  23  60 SW18G28   29.99R WCI  25
QUEBEC CITY    MOCLDY    28  23  80 W16       29.92S WCI  17
SHERBROOKE     CLOUDY    27  19  74 SW8       30.00R WCI  18

_____REGIONAL ONTARIO LOCATIONS_____


CITY           SKY/WX    TMP DP  RH WIND       PRES   REMARKS
OTTAWA         MOCLDY    32  25  74 SW18G25   29.99R WCI  20

______KEY______
VSB  - VISIBILITY IN MILES
WCI  - WIND CHILL INDEX
HX   - HEAT INDEX
$$
NNNN




USA.gov is the U.S. government's official web portal to all federal, state and local government web resources and services.